STARLINK-32379, 61851

Orbit data source: Space-Track

STARLINK-32379, 61851 is a payload satellite owned by SpaceX/Seattle (US) in LEO that was launched on Thu, 07 Nov 2024 UTC via an FALCON 9 launch vehicle from the Air Force Eastern Test Range (AFETR). Payloads include a variety of satellites, spacecraft, and rockets equipped with specific instruments for various scientific and technological missions. These include communications satellites like Starlink; space stations such as the ISS; scientific satellites like the Hubble; Earth observation satellites from companies like Planet Labs, Umbra, and HawkEye 360; GPS; miniature CubeSats for education and research; and military/defense satellites.

Loading next visibility...
STARLINK-32379 details
Identifier
61851, 2024-202G
Orbit
LEO
Last TLE update8 hours ago
Origin
Flag of USSpaceX/Seattle (US)
ManufacturerSpaceX/Seattle
MissionOperational spacecraft
Bus & MotorSTARLINK V2M, Unknown motor
Mass730 kg wet, ~700 kg dry
Launch date (UTC)
2024-11-07 (2 months ago)
Launch vehicle
FALCON 9
Launch site
Air Force Eastern Test Range (AFETR)
Object type
Payload
Rocket body
Debris
Shape & HBRUnknown
Radar Cross SectionLarge (>1 m²)

Expand to show TLE details & history

TLE from 8 hours ago
0 STARLINK-32379
1 61851U 24202G   24361.59963308 -.00005871  00000-0 -13345-3 0  9992
2 61851  42.9997 201.0769 0001337 270.2996  89.7707 15.40689042  8226
Epoch: 2024-12-26T14:23Z
Definitive object data (Epoch: 2024-12-26T14:23:28.298Z)
Latitude-0.00002°
Longitude-110.36774°
Altitude443.845 km
Speed7.648 km/s
True Right ascension13h 24m 18s
True Declination0° 00' 00"
Sunlit
Object was in daylight at TLE epoch
Visualization TLE readout
Latitude-10.0844°
Longitude-123.15364°
Altitude445.445 km
Speed7.646 km/s
Apparent Right ascension11h 16m 31s
Apparent Declination-26° 07' 36"
Sunlit
Object is in daylight
Visualization observer readout
Local Sidereal Time21:29:30
Azimuth293.613° NW
Elevation-63.826°
Doppler factor1
Orbital elements
Apogee altitude446.943 km
Perigee altitude445.118 km
Semi-major axis6,824.168 km
Eccentricity0.0001337
Inclination42.9997°
RAAN201.0769°
Arg. of periapsis270.2996°
True anomaly89.78602°
Mean anomaly89.7707°
Eccentric anomaly89.77836°
Mean motion3.85007 °/min
BSTAR-0.00013345
Orbital period93.5 mins
Loading maneuver chart data...
Loading historical data...
Loading historical data...
Loading historical data...
Loading historical data...
Loading historical data...
Loading historical data...
Loading historical data...

STARLINK-32379 Visibility forecast

Observer location: undefined°, undefined

Span
Click to sort rows by Start time (UTC) header in descending order
Start Az.
Max El. time (UTC)
Max El. Az.
Max El.
End time (UTC)
End Az.
6 mins2024-12-26 22:38:24.319Z277.103° WNW2024-12-26 22:41:24.319Z217.119° SW31.188°2024-12-26 22:44:24.319Z142.762° SSE
6 mins2024-12-27 17:03:24.319Z232.323° WSW2024-12-27 17:06:24.319Z182.715° SSW37.435°2024-12-27 17:09:24.319Z80.86° E
4 mins2024-12-27 18:43:24.319Z286.606° WNW2024-12-27 18:44:24.319Z316.745° NNW37.21°2024-12-27 18:47:24.319Z66.876° ENE
5 mins2024-12-27 20:21:24.319Z298.385° NW2024-12-27 20:23:24.319Z25.572° NE39.949°2024-12-27 20:26:24.319Z89.238° E
5 mins2024-12-27 21:59:24.319Z270.154° WNW2024-12-27 22:01:24.319Z199.104° SSW35.966°2024-12-27 22:04:24.319Z133.263° SE
|